Location: Street
(51.1247°N, 2.7429°W)
Time: 18:11:25
(UTC+00:00)

N. Korean satellite - Pass Details

Date: 28 October 2020
Orbit: 453 x 503 km, 97.2° (Epoch: 04 December)

Event Time Altitude Azimuth Distance (km) Brightness Sun altitude
Rises 04:56:31 0° 26° (NNE) 2,487 10.6 -19.4°
Reaches altitude 10° 04:59:00 10° 44° (NE) 1,603 9.8 -19.0°
Maximum altitude 05:01:32 19° 92° (E) 1,142 9.4 -18.6°
Drops below altitude 10° 05:04:03 10° 140° (SE) 1,589 9.7 -18.2°
Sets 05:06:30 0° 159° (SSE) 2,458 10.4 -17.8°
